Starlink 11413

operational
NORAD ID: 62593 Int'l Des: 2025-008 Owner: SPXS Country: US Constellation: starlink
LEOCIRCULAR

关于 Starlink 11413

正在加载描述...

实时位置

正在加载3D地球...

即将过境

高度历史

Altitude vs Time

uPlot chart will show altitude changes over time

两行轨道根数

1 62593U 25008G 25353.08262794 .00019985 00000-0 15898-3 0 9992
2 62593 43.0009 252.3228 0001854 255.2018 104.8645 15.70822887 54508
Epoch: Dec 19, 2025 • Age: 11 hours

当前状态

高度 355.9 km
速度 7.70 km/s
星下点 1.17°N, 138.5°E
发射日期 Jan 13, 2025
运行时间 0.9 years
类型 internet

技术详情

分类 Payload
质量 960.00 kg
干质量 910.00 kg
总质量 960.00 kg
长度 0.30 m
直径 4.10 m
跨度 29.00 m
形状 Box + pan
制造商 SPXS
平台类型 Starlink V2MD
阶段状态 In Orbit
所有者/国家 SPXS/US

大型星座

Loading constellations...